www.pogodaiklimat.ru

Погода и климат >> Архив погоды >> Индонезия >> Голеа


ПОГОДА в Голеа

  • Прогноз погоды в Голеа
  • Монитор погоды в Голеа

АРХИВ ПОГОДЫ в Голеа

Время (UTC), дата Ветер
(напр.,м/с)
 
Видим.   Явления Облачность Т
(С)
Тd
(С)
f
(%)
Тe
(С)
Тes
(С)
Комфортность P
(гПа)
Po
(гПа)
Тmin
(С)
Tmax
(С)
R
(мм)
R24
(мм)
S
(см)
03 18.06 З 4 10 км 6/5 540 м
[Cu med, cong Ac trans Ci fib]
+31.5 +25.3 70 +46 +51 опасность
перегрева
1009.5 1005.4
06 18.06 ЮЗ 4 10 км 8/6 540 м
[Cu med, cong Ac trans Ci fib]
+30.9 +23.8 66 +42 +45 опасность
перегрева
1007.7 1003.6
09 18.06 З 2 10 км 8/4 540 м
[Cu med, cong Ac As Ci fib]
+28.4 +23.6 75 +39 +39 очень
душно
1008.7 1004.6 250
12 18.06 З 2 10 км 6/3 540 м
[Cu med, cong Ac trans Ci fib]
+26.0 +23.6 87 +35 +35 очень
душно
1009.8 1005.7 +31.9
15 18.06 СЗ 2 10 км 10/3 540 м
[Cu med, cong Ac trans Ci fib]
+24.4 +23.4 94 +33 +33 очень
душно
1010.2 1006.1
18 18.06 штиль 0 10 км 6/3 540 м
[Cu med, cong Ac trans Ci fib]
+23.4 +23.0 98 +33 +33 очень
душно
1008.5 1004.4
21 18.06 ЮЗ 2 10 км 4/1 540 м
[Cu hum Ci fib]
+22.7 +22.2 97 +31 +31 очень
душно
1009.1 1005.0
00 19.06 ЮЗ 2 10 км 4/3 540 м
[Cu hum Ci fib]
+28.0 +23.9 78 +39 +43 очень
душно
1009.7 1005.6 +22.6
03 19.06 З 7 6000 м 8/5 540 м
[Cu med, cong Ac trans Ci fib]
+31.2 +24.2 66 +43 +45 опасность
перегрева
1009.0 1004.9
06 19.06 З 6 9000 м {дождь} 9/5 500 м
[Cb cap Ac As Ci fib]
+29.8 +24.6 74 +42 +44 опасность
перегрева
1007.7 1003.6 0.0
09 19.06 З 1 10 км 8/4 540 м
[Cu med, cong Ac trans Ci fib]
+28.4 +24.3 78 +40 +40 очень
душно
1007.5 1003.4
12 19.06 штиль 0 10 км 8/4 540 м
[Cu med, cong Ac trans Ci fib]
+25.3 +24.3 94 +35 +35 очень
душно
1009.1 1005.0 +32.2
15 19.06 штиль 0 10 км 5/1 540 м
[Cu hum Ac trans Ci fib]
+24.2 +23.5 96 +33 +33 очень
душно
1009.2 1005.1
18 19.06 штиль 0 10 км 4/1 540 м
[Cu hum Ac trans Ci fib]
+23.2 +22.8 98 +32 +32 очень
душно
1008.0 1003.9
21 19.06 штиль 0 10 км 1/1 540 м
[Cu hum Ac trans Ci fib]
+22.3 +21.8 97 +30 +30 очень
душно
1008.2 1004.1
00 20.06 штиль 0 10 км 3/1 450 м
[Cu hum Ac trans Ci fib]
+27.5 +23.2 77 +37 +45 очень
душно
1009.7 1005.6 +22.2 0.0
03 20.06 В 1 10 км 6/4 500 м
[Cu med, cong Ac trans Ci fib]
+31.4 +25.0 69 +45 +56 опасность
перегрева
1009.1 1005.0
06 20.06 СВ 1 10 км 8/5 450 м
[Cb cap Ac trans Ci fib]
+31.6 +24.9 68 +45 +50 опасность
перегрева
1007.5 1003.4
09 20.06 штиль 0 9000 м в посл. час гроза 9/5 500 м
[Cb cap Ac As Ci fib]
+27.4 +24.3 83 +38 +38 очень
душно
1008.6 1004.5
12 20.06 штиль 0 10 км {гроза} 6/4 540 м
[Cu med, cong Ac trans Ci fib]
+25.4 +24.2 93 +35 +35 очень
душно
1010.9 1006.8 +32.3
15 20.06 штиль 0 10 км 6/4 540 м
[Cu med, cong Ac trans Ci fib]
+24.2 +23.5 96 +33 +33 очень
душно
1010.4 1006.3
18 20.06 штиль 0 10 км 4/3 540 м
[Cu hum Ci fib]
+23.0 +22.6 98 +32 +32 очень
душно
1008.6 1004.5
21 20.06 штиль 0 10 км 4/1 540 м
[Cu hum Ci fib]
+22.0 +21.7 98 +29 +29 очень
душно
1008.5 1004.4
00 21.06 штиль 0 10 км 3/1 540 м
[Cu hum Ci fib]
+27.6 +23.3 77 +37 +46 очень
душно
1009.6 1005.5 +22.0
03 21.06 В 2 10 км 6/4 540 м
[Cu med, cong Ci fib]
+32.1 +23.3 60 +43 +54 опасность
перегрева
1008.2 1004.1
06 21.06 штиль 0 10 км 8/5 540 м
[Cu med, cong Ac trans Ci fib]
+31.8 +24.7 66 +45 +50 опасность
перегрева
1006.9 1002.8
09 21.06 ЮЗ 1 10 км 8/5 540 м
[Cu med, cong Ac trans Ci fib]
+29.0 +25.0 79 +42 +42 опасность
перегрева
1007.9 1003.8
12 21.06 штиль 0 10 км 8/5 540 м
[Cu med, cong Ac trans Ci fib]
+26.3 +24.9 92 +38 +38 очень
душно
1010.0 1005.9 +32.2
15 21.06 штиль 0 10 км 6/4 540 м
[Cu med, cong Ac trans Ci fib]
+24.8 +24.1 96 +34 +34 очень
душно
1009.8 1005.7
18 21.06 штиль 0 10 км 8/5 570 м
[Cu med, cong Ac trans Ci fib]
+23.8 +23.4 98 +32 +32 очень
душно
1008.0 1003.9
21 21.06 штиль 0 10 км 5/3 570 м
[Cu med, cong Ac trans Ci fib]
+22.8 +22.4 98 +31 +31 очень
душно
1007.9 1003.8
00 22.06 штиль 0 10 км 5/3 600 м
[Cu hum Ac trans Ci fib]
+27.7 +23.7 79 +38 +44 очень
душно
1008.4 1004.3 +22.6
03 22.06 ЮЗ 2 10 км 8/5 540 м
[Cu med, cong Ac trans Ci fib]
+31.5 +23.6 63 +43 +49 опасность
перегрева
1007.8 1003.7
06 22.06 СЗ 4 8000 м 8/5 540 м
[Cu med, cong Ac trans Ci fib]
+31.4 +25.2 70 +45 +49 опасность
перегрева
1006.1 1002.0
09 22.06 штиль 0 10 км 5/3 540 м
[Cu med, cong Ac trans Ci fib]
+29.1 +26.4 85 +44 +45 опасность
перегрева
1007.1 1003.0
12 22.06 штиль 0 10 км 5/3 540 м
[Cu med, cong Ac trans Ci fib]
+25.6 +24.1 91 +35 +35 очень
душно
1009.2 1005.1 +31.9
15 22.06 штиль 0 10 км 6/3 500 м
[Cu med, cong Ac trans Ci fib]
+24.4 +23.7 96 +33 +33 очень
душно
1009.2 1005.1
18 22.06 штиль 0 10 км 4/1 540 м
[Cu hum Ac trans Ci fib]
+23.9 +23.2 96 +32 +32 очень
душно
1008.3 1004.2
21 22.06 штиль 0 10 км 3/1 540 м
[Cu hum Ci fib]
+22.2 +21.8 98 +29 +29 очень
душно
1008.3 1004.2
00 23.06 штиль 0 10 км 4/1 540 м
[Cu hum Ci fib]
+27.4 +23.7 80 +37 +46 очень
душно
1009.0 1004.9 +21.6
03 23.06 В 2 10 км 5/4 540 м
[Cu med, cong Ci fib]
+32.1 +25.3 67 +46 +58 опасность
перегрева
1008.5 1004.4
06 23.06 Ю 2 6000 м дождь 8/5 500 м
[Cb cap Ac trans Ci fib]
+28.8 +25.2 81 +42 +46 опасность
перегрева
1007.3 1003.2 8
09 23.06 ЮЗ 2 10 км {дождь} 6/5 540 м
[Cb calv Ac trans Ci fib]
+30.0 +24.8 74 +43 +43 опасность
перегрева
1007.6 1003.5 0.0
12 23.06 ЮЗ 2 10 км {дождь} 5/3 540 м
[Cu med, cong Ac trans Ci fib]
+26.0 +24.5 91 +36 +36 очень
душно
1009.9 1005.8 +32.6 0.0
15 23.06 штиль 0 10 км 5/3 540 м
[Cu med, cong Ac trans Ci fib]
+24.2 +23.5 96 +33 +33 очень
душно
1010.5 1006.4
18 23.06 штиль 0 10 км 4/3 540 м
[Cu hum Ci fib]
+23.6 +22.9 96 +31 +31 очень
душно
1009.2 1005.1
21 23.06 штиль 0 10 км 3/1 540 м
[Cu hum Ci fib]
+21.6 +21.3 98 +28 +28 очень
душно
1010.2 1006.1
00 24.06 штиль 0 10 км 3/1 540 м
[Cu hum Ci fib]
+27.4 +24.2 83 +38 +47 очень
душно
1011.9 1007.8 +21.2 8
03 24.06 В 2 10 км 6/4 540 м
[Cu med, cong Ci fib]
+31.6 +23.5 62 +42 +54 опасность
перегрева
1010.4 1006.3
06 24.06 СВ 2 10 км 6/4 540 м
[Cu med, cong Ci fib]
+32.3 +24.3 63 +45 +52 опасность
перегрева
1008.5 1004.4
09 24.06 З 2 10 км 6/4 540 м
[Cu med, cong Ci fib]
+29.6 +24.7 75 +42 +42 опасность
перегрева
1009.1 1005.0
12 24.06 штиль 0 10 км 5/4 540 м
[Cu med, cong Ci fib]
+25.9 +24.5 92 +36 +36 очень
душно
1011.4 1007.3 +32.6
15 24.06 штиль 0 10 км 4/3 540 м
[Cu hum Ci fib]
+24.9 +24.1 95 +34 +34 очень
душно
1012.0 1007.9
18 24.06 штиль 0 10 км 4/1 540 м
[Cu hum Ci fib]
+23.0 +22.6 98 +32 +32 очень
душно
1010.9 1006.8
21 24.06 штиль 0 10 км 3/1 540 м
[Cu hum Ci fib]
+22.7 +22.2 97 +31 +31 очень
душно
1010.9 1006.8
00 25.06 штиль 0 10 км 3/1 600 м
[Sc diur, vesp Ci fib]
+27.6 +24.4 83 +39 +47 очень
душно
1011.9 1007.8 +23.2

 

Местоположение метеостанции Голеа (Индонезия): широта 1.82 долгота 127.83 высота над уровнем моря 8 м.

В архиве по умолчанию представлена погода в Голеа за последнюю неделю. Архивные данные за месяц целиком и за предыдущие месяцы, начиная с января 2011 года, Вы можете получить, выбрав интересующий диапазон дат из раскрывающегося списка и нажав кнопку "Ввод!".


*Определитесь, кто Вы:
робот инопланетянин человек

Внимание! Время в таблицах - всемирное. Для получения местного времени необходимо прибавить поправку, которая равна 8 ч.

Смотрите также архив погоды в соседних городах и на ближайших метеорологических станциях:

Погода в Тернате (Индонезия) (128 км)
Погода в Лабухе (Индонезия) (275 км)
Погода в Битунге (Индонезия) (298 км)
Погода в Менадо (Индонезия) (326 км)
Погода в Аэропорту Соронг-Джефман (Индонезия) (476 км)
Погода на Санане (Индонезия) (479 км)
Погода в Горонтало (Индонезия) (550 км)
Погода в Генерал-Сантосе (Филиппины) (561 км)
Погода в Намлеа (Индонезия) (570 км)
Погода в Амахаи (Индонезия) (587 км)

Пояснения к столбцам:

Ветер - указаны скорость ветра в м/с - средняя за 10 мин, порывы в срок и между сроками (в фигурных скобках) и направление, откуда дует ветер: С - северный, СВ - северо-восточный, В - восточный, ЮВ - юго-восточный, Ю - южный, ЮЗ - юго-западный, З - западный, СЗ - северо-западный.
Видимость - горизонтальная дальность видимости в метрах или километрах. При видимости от 1 до 10 км при отсутствии осадков обычно наблюдается дымка, при ухудшении видимости до 1 км и менее - туман. В сухую погоду видимость может ухудшаться дымом, пылью или мглою.
Явления - указаны атмосферные явления, наблюдавшиеся в срок или в последний час перед сроком; фигурными скобками обозначены явления, наблюдавшиеся между сроками (за 1-3 часа до срока); квадратными скобками обозначены град или гололедные отложения с указанием их диаметра в мм.
Облачность - указаны через наклонную черту общая и нижняя облачность в баллах и высота нижней границы облаков в метрах; квадратными скобками обозначены формы облаков: Ci - перистые, Cs - перисто-слоистые, Cc - перисто-кучевые, Ac - высококучевые, As - высокослоистые, Sc - слоисто-кучевые, Ns - слоисто-дождевые, Cu - кучевые, Cb - кучево-дождевые. Подробнее классификацию облаков см. в Атласе облаков (PDF).
T - Температура воздуха - температура, измеренная на высоте 2 м над землей.
Td - Температура точки росы - температура, при понижении до которой содержащийся в воздухе водяной пар достигнет насыщения.
f - Относительная влажность воздуха - влажноcть воздуха, измеренная на высоте 2 м над землей.
Te - Эффективная температура - температура, которую ощущает одетый по сезону человек в тени. Характеристика душности погоды. При расчете учитывается влияние влажности воздуха и скорости ветра на теплоощущения человека.
Tes - Эффективная температура на солнце - температура, которую ощущает человек, с поправкой на солнечный нагрев. Характеристика знойности погоды. Зависит от высоты солнца над горизонтом, облачности и скорости ветра. Ночью, в пасмурную погоду, а также при ветре 12 м/с и более поправка равна нулю.
P - Атмосферное давление - приведенное к уровню моря атмосферное давление.
Po - Атмосферное давление - измеренное на уровне метеостанции атмосферное давление.
Tmin - Минимальная температура - минимум температуры воздуха на высоте 2 м над землей.
Tmax - Максимальная температура - максимум температуры воздуха на высоте 2 м над землей.
R - Количество осадков - Количество выпавших осадков за период времени, мм. При наведении курсора мыши на число - период времени, за который выпало указанное количество осадков.
R24 - Количество осадков - Количество выпавших осадков за 24 часа, мм.
S - Снежный покров - Высота снежного покрова, см. При наведении курсора мыши на число - состояние снежного покрова и степень покрытия местности в баллах.